ONEWEB-0065, 45164

Orbit data source: Space-Track

ONEWEB-0065, 45164 is a payload satellite owned by One Web (UK) in LEO that was launched on Thu, 06 Feb 2020 UTC via a SOYUZ-2-1B launch vehicle from the Tyuratam Missile And Space Complex (TTMTR). Payloads include a variety of satellites, spacecraft, and rockets equipped with specific instruments for various scientific and technological missions. These include communications satellites like Starlink; space stations such as the ISS; scientific satellites like the Hubble; Earth observation satellites from companies like Planet Labs, Umbra, and HawkEye 360; GPS; miniature CubeSats for education and research; and military/defense satellites.

Loading next visibility...
ONEWEB-0065 details
Identifier
45164, 2020-008AK
Orbit
LEO
Last TLE update18 hours ago
Origin
Flag of UKOne Web (UK)
ManufacturerOne Web
MissionOperational Commercial Communications
Bus & MotorARROW, Unknown motor
Mass148 kg wet, ~140 kg dry
Launch date (UTC)
2020-02-06 (5 years ago)
Launch vehicle
SOYUZ-2-1B
Launch site
Tyuratam Missile And Space Complex (TTMTR)
Object type
Payload
Rocket body
Debris
Shape & HBRTrap Box + 2 Pan, 5 m
Radar Cross Section2.957 m², Large (>1 m²)

Expand to show TLE details & history

TLE from 18 hours ago
0 ONEWEB-0065
1 45164U 20008AK  24360.66273834 -.00000599  00000-0 -17526-2 0  9992
2 45164  87.8903 143.5517 0001570  93.8369 266.2938 13.10371812238099
Epoch: 2024-12-25T15:54Z
Definitive object data (Epoch: 2024-12-25T15:54:20.592Z)
Latitude-0.00001°
Longitude170.31264°
Altitude1,224.686 km
Speed7.242 km/s
True Right ascension09h 34m 12s
True Declination0° 00' 00"
Sunlit
Object was in full shadow at TLE epoch
Visualization TLE readout
Latitude-16.78873°
Longitude169.5283°
Altitude1,228.672 km
Speed7.239 km/s
Apparent Right ascension09h 33m 25s
Apparent Declination-69° 07' 33"
Sunlit
Object is in daylight
Visualization observer readout
Local Sidereal Time09:29:55
Azimuth179.671° S
Elevation-19.044°
Doppler factor1
Orbital elements
Apogee altitude1,220.034 km
Perigee altitude1,217.648 km
Semi-major axis7,596.978 km
Eccentricity0.000157
Inclination87.8903°
RAAN143.5517°
Arg. of periapsis93.8369°
True anomaly266.27585°
Mean anomaly266.2938°
Eccentric anomaly266.28482°
Mean motion3.2778 °/min
BSTAR-0.0017526
Orbital period109.83 mins
Loading maneuver chart data...
Loading historical data...
Loading historical data...
Loading historical data...
Loading historical data...
Loading historical data...
Loading historical data...
Loading historical data...

ONEWEB-0065 Visibility forecast

Observer location: undefined°, undefined

Span
Click to sort rows by Start time (UTC) header in descending order
Start Az.
Max El. time (UTC)
Max El. Az.
Max El.
End time (UTC)
End Az.
14 mins2024-12-26 10:18:47.257Z182.337° SSW2024-12-26 10:25:47.257Z235.429° WSW44.601°2024-12-26 10:32:47.257Z358.558° N
4 mins2024-12-26 12:15:47.257Z277.581° WNW2024-12-26 12:16:47.257Z286.168° WNW12.793°2024-12-26 12:19:47.257Z311.433° NW
4 mins2024-12-26 20:03:47.257Z57.98° ENE2024-12-26 20:04:47.257Z66.536° ENE12.741°2024-12-26 20:07:47.257Z91.844° ESE
12 mins2024-12-26 21:50:47.257Z2.454° NNE2024-12-26 21:56:47.257Z137.227° SSE44.389°2024-12-26 22:02:47.257Z177.064° S
6 mins2024-12-26 23:42:47.257Z311.376° NW2024-12-26 23:45:47.257Z283.422° WNW16.335°2024-12-26 23:48:47.257Z257.082° W
6 mins2024-12-27 08:23:47.257Z95.798° ESE2024-12-27 08:26:47.257Z69.429° E14.778°2024-12-27 08:29:47.257Z43.761° NE
|